Location: Innerarity Island Observatory
(30.3139°N, 87.4867°W)
Time: 22:12:27
(UTC-05:00)

Amateur Radio Satellites - All Passes

Search period start: 21 October 2014 21:42
Search period end: 22 October 2014 21:42
Location: Innerarity Island Observatory, 30.3139°N, 87.4867°W

Satellite Date Start Highest point End Downlink Frequencies (MHz)
Time Altitude Azimuth
HO-68 21 Oct 21:49:56 21:56:39 44° 259° (W) 22:03:27 435.675 MHz FM
FUNcube-1 21 Oct 21:54:30 21:58:36 32° 73° (ENE) 22:02:41 145.950 - 145.970 MHz USB
SO-50 21 Oct 22:03:20 22:06:18 16° 52° (NE) 22:09:17 436.795 FM
Oscar 11 21 Oct 22:05:19 22:09:38 69° 259° (W) 22:13:57 145.825 FM, Beacon 2401.500 USB
RS-15 21 Oct 22:20:43 22:31:42 70° 112° (ESE) 22:42:29 29.354 - 29.394 USB, Beacon 29.352 USB
KITSAT 1 21 Oct 22:37:32 22:45:38 81° 65° (ENE) 22:53:42 435.175 FM
ZACube-1 21 Oct 22:44:37 22:49:11 61° 259° (W) 22:53:43 437.345 MHz
ISS 21 Oct 22:45:37 22:47:10 13° 235° (SW) 22:48:44 145.800 FM
UKube-1 21 Oct 22:59:05 23:01:13 13° 265° (W) 23:03:22 145.840 MHz, 145.915 MHz
FUNcube-1 21 Oct 23:31:51 23:34:57 18° 265° (W) 23:38:03 145.950 - 145.970 MHz USB
SO-50 21 Oct 23:42:23 23:47:07 51° 246° (WSW) 23:51:50 436.795 FM
UOSAT-12 21 Oct 23:45:46 23:48:21 15° 51° (NE) 23:50:55 437.025 FM, 437.400 FM
MaSat-1 22 Oct 00:04:17 00:08:39 65° 110° (ESE) 00:12:41 437.345 MHz
RS-15 22 Oct 00:35:43 00:44:47 29° 312° (NW) 00:53:53 29.354 - 29.394 USB, Beacon 29.352 USB
KITSAT 1 22 Oct 00:35:49 00:40:02 15° 258° (WSW) 00:44:16 435.175 FM
Oscar 16 22 Oct 01:03:08 01:04:20 11° 93° (E) 01:05:31 437.025 USB, Beacon 2401.1428
UOSAT-12 22 Oct 01:24:14 01:28:47 52° 246° (WSW) 01:33:14 437.025 FM, 437.400 FM
JAS-1B 22 Oct 01:49:51 01:56:13 38° 101° (E) 02:03:40 435.800 - 435.900 CW/SSB
Oscar 19 22 Oct 01:53:54 01:58:43 42° 99° (E) 02:03:32 437.125 CW, 437.150 USB
AO-27 22 Oct 02:04:24 02:08:09 20° 96° (E) 02:11:52 436.795 MHz FM
Oscar 16 22 Oct 02:38:55 02:43:58 62° 285° (WNW) 02:49:00 437.025 USB, Beacon 2401.1428
Uribyol 2 22 Oct 02:52:36 02:57:48 70° 102° (ESE) 03:02:57 436.500 FM
PCSat 22 Oct 02:54:09 02:55:24 11° 103° (ESE) 02:56:40 145.825 MHz
ITAMSAT 1 22 Oct 02:57:46 03:03:00 74° 102° (ESE) 03:08:11 435.822 SSB
Gurwin Techsat 1B 22 Oct 02:59:04 03:03:57 36° 99° (E) 03:08:47 435.225 FM
AO-Echo 22 Oct 02:59:36 03:04:55 78° 284° (WNW) 03:10:12 ?
TMSAT-1 22 Oct 03:12:26 03:17:17 36° 98° (E) 03:22:05 436.925 FM
Oscar 19 22 Oct 03:34:23 03:37:41 18° 292° (WNW) 03:40:58 437.125 CW, 437.150 USB
AO-7 22 Oct 03:39:09 03:44:05 17° 95° (E) 03:48:59 29.400 - 29.500 MHz
JAS-1B 22 Oct 03:40:45 03:46:38 33° 289° (WNW) 03:53:27 435.800 - 435.900 CW/SSB
AO-27 22 Oct 03:42:55 03:47:41 37° 288° (WNW) 03:52:26 436.795 MHz FM
Sapphire 22 Oct 04:09:54 04:15:13 65° 112° (ESE) 04:20:35 437.095 MHz 1200 baud AX-25 AFSK
PCSat 22 Oct 04:32:46 04:38:08 69° 295° (WNW) 04:43:32 145.825 MHz
Uribyol 2 22 Oct 04:35:17 04:36:36 11° 296° (WNW) 04:37:54 436.500 FM
Gurwin Techsat 1B 22 Oct 04:39:41 04:43:36 21° 291° (WNW) 04:47:32 435.225 FM
ITAMSAT 1 22 Oct 04:41:00 04:41:47 10° 296° (WNW) 04:42:35 435.822 SSB
Uosat F 22 Oct 04:42:05 04:46:43 36° 99° (E) 04:51:20 435.120 FM
TMSAT-1 22 Oct 04:52:57 04:56:54 22° 291° (WNW) 05:00:51 436.925 FM
OPAL 22 Oct 05:11:48 05:16:58 79° 74° (ENE) 05:22:07 ?
JAS-2 22 Oct 05:14:41 05:21:01 27° 95° (E) 05:27:15 435.800 - 435.900 CW/SSB, 435.910 FM
RS-15 22 Oct 05:20:53 05:23:38 11° 28° (NNE) 05:26:24 29.354 - 29.394 USB, Beacon 29.352 USB
AO-7 22 Oct 05:29:04 05:37:23 78° 288° (WNW) 05:45:42 29.400 - 29.500 MHz
Sapphire 22 Oct 05:56:15 05:59:04 14° 307° (NW) 06:01:54 437.095 MHz 1200 baud AX-25 AFSK
Hamsat 22 Oct 06:18:20 06:22:25 51° 100° (E) 06:26:31 145.90 MHz
Uosat F 22 Oct 06:21:38 06:25:11 20° 292° (WNW) 06:28:44 435.120 FM
STRAND 1 22 Oct 06:51:24 06:56:29 71° 75° (ENE) 07:01:36 ?
JAS-2 22 Oct 06:58:35 07:06:06 54° 288° (WNW) 07:13:36 435.800 - 435.900 CW/SSB, 435.910 FM
Saudisat 1A 22 Oct 07:12:52 07:16:17 23° 110° (ESE) 07:19:44 436.775 MHz
AO-7 22 Oct 07:25:29 07:28:50 13° 305° (NW) 07:32:11 29.400 - 29.500 MHz
RS-15 22 Oct 07:29:08 07:39:49 47° 55° (NE) 07:50:53 29.354 - 29.394 USB, Beacon 29.352 USB
PANSAT 22 Oct 07:59:22 08:02:39 28° 161° (SSE) 08:05:57 not established
SO-67 22 Oct 08:03:01 08:06:24 57° 283° (WNW) 08:09:47 435.3500 MHz FM
Saudisat 1A 22 Oct 08:52:02 08:55:41 26° 304° (NW) 08:59:22 436.775 MHz
UKube-1 22 Oct 09:18:18 09:18:25 10° 94° (E) 09:18:32 145.840 MHz, 145.915 MHz
HO-68 22 Oct 09:23:32 09:30:30 50° 101° (ESE) 09:37:23 435.675 MHz FM
PANSAT 22 Oct 09:38:47 09:42:33 60° 173° (S) 09:46:20 not established
RS-15 22 Oct 09:41:37 09:51:59 44° 252° (WSW) 10:02:50 29.354 - 29.394 USB, Beacon 29.352 USB
MaSat-1 22 Oct 09:57:25 09:59:17 18° 63° (ENE) 10:01:04 437.345 MHz
Oscar 11 22 Oct 09:58:57 10:02:49 32° 98° (E) 10:06:40 145.825 FM, Beacon 2401.500 USB
AO-40 22 Oct 09:59:02 10:03:34 13° 210° (SSW) 10:06:41 Beacon 2401.320
ZACube-1 22 Oct 10:40:04 10:44:02 38° 99° (E) 10:47:55 437.345 MHz
UKube-1 22 Oct 10:50:34 10:54:47 49° 286° (WNW) 10:58:59 145.840 MHz, 145.915 MHz
KITSAT 1 22 Oct 11:06:48 11:12:14 20° 103° (ESE) 11:17:40 435.175 FM
HO-68 22 Oct 11:12:08 11:17:44 25° 295° (WNW) 11:23:20 435.675 MHz FM
PANSAT 22 Oct 11:18:49 11:22:36 61° 186° (S) 11:26:23 not established
FUNcube-1 22 Oct 11:25:23 11:29:31 52° 285° (WNW) 11:33:33 145.950 - 145.970 MHz USB
Oscar 11 22 Oct 11:36:06 11:38:41 16° 291° (WNW) 11:41:15 145.825 FM, Beacon 2401.500 USB
ISS 22 Oct 12:09:48 12:12:14 19° 127° (SE) 12:14:41 145.800 FM
SO-50 22 Oct 12:13:28 12:16:02 15° 108° (ESE) 12:18:37 436.795 FM
ZACube-1 22 Oct 12:18:13 12:20:01 13° 292° (WNW) 12:21:48 437.345 MHz
JAS-1B 22 Oct 12:33:25 12:36:34 15° 66° (ENE) 12:39:35 435.800 - 435.900 CW/SSB
KITSAT 1 22 Oct 12:58:50 13:06:51 68° 297° (WNW) 13:14:54 435.175 FM
PANSAT 22 Oct 12:59:09 13:02:31 29° 198° (SSW) 13:05:53 not established
Sapphire 22 Oct 13:05:04 13:08:29 17° 54° (NE) 13:11:52 437.095 MHz 1200 baud AX-25 AFSK
Oscar 19 22 Oct 13:05:18 13:09:55 34° 72° (ENE) 13:14:31 437.125 CW, 437.150 USB
AO-27 22 Oct 13:17:37 13:20:59 18° 67° (ENE) 13:24:21 436.795 MHz FM
PCSat 22 Oct 13:26:59 13:31:38 28° 59° (ENE) 13:36:15 145.825 MHz
ISS 22 Oct 13:45:55 13:48:46 26° 320° (NW) 13:51:39 145.800 FM
Oscar 10/S400 22 Oct 13:48:28 14:09:10 58° 156° (SSE) 14:33:00 145.825 - 145.975 CW/USB, Beacon 145.810 USB
Oscar 16 22 Oct 13:49:55 13:55:05 77° 258° (WSW) 14:00:16 437.025 USB, Beacon 2401.1428
SO-50 22 Oct 13:52:01 13:56:10 38° 302° (WNW) 14:00:27 436.795 FM
UOSAT-12 22 Oct 13:52:05 13:54:27 14° 107° (ESE) 13:56:50 437.025 FM, 437.400 FM
Uribyol 2 22 Oct 14:04:42 14:09:47 58° 74° (ENE) 14:14:55 436.500 FM
AO-Echo 22 Oct 14:06:50 14:11:36 73° 76° (ENE) 14:16:32 ?
ITAMSAT 1 22 Oct 14:10:01 14:15:07 62° 75° (ENE) 14:20:16 435.822 SSB
Gurwin Techsat 1B 22 Oct 14:14:41 14:19:22 33° 71° (ENE) 14:24:04 435.225 FM
JAS-1B 22 Oct 14:20:33 14:26:51 57° 258° (WSW) 14:32:31 435.800 - 435.900 CW/SSB
TMSAT-1 22 Oct 14:27:44 14:32:22 32° 71° (ENE) 14:37:01 436.925 FM
AO-7 22 Oct 14:33:44 14:37:56 15° 57° (ENE) 14:42:07 29.400 - 29.500 MHz
Oscar 19 22 Oct 14:45:24 14:49:14 21° 264° (W) 14:53:04 437.125 CW, 437.150 USB
Sapphire 22 Oct 14:46:54 14:52:12 55° 249° (WSW) 14:57:27 437.095 MHz 1200 baud AX-25 AFSK
AO-27 22 Oct 14:55:10 15:00:05 43° 260° (W) 15:05:02 436.795 MHz FM
KITSAT 1 22 Oct 15:00:36 15:03:45 13° 317° (NW) 15:06:55 435.175 FM
PCSat 22 Oct 15:10:17 15:14:55 29° 253° (WSW) 15:19:32 145.825 MHz
UOSAT-12 22 Oct 15:29:44 15:34:08 45° 301° (WNW) 15:38:38 437.025 FM, 437.400 FM
Uribyol 2 22 Oct 15:47:32 15:49:31 12° 267° (W) 15:51:31 436.500 FM
Uosat F 22 Oct 15:50:05 15:54:18 28° 70° (ENE) 15:58:31 435.120 FM
ITAMSAT 1 22 Oct 15:53:22 15:54:54 11° 267° (W) 15:56:27 435.822 SSB
Gurwin Techsat 1B 22 Oct 15:55:10 15:59:17 23° 264° (W) 16:03:26 435.225 FM
TMSAT-1 22 Oct 16:08:03 16:12:13 24° 264° (W) 16:16:25 436.925 FM
AO-7 22 Oct 16:21:15 16:29:32 87° 73° (ENE) 16:37:51 29.400 - 29.500 MHz
JAS-2 22 Oct 17:05:07 17:10:14 36° 69° (ENE) 17:15:56 435.800 - 435.900 CW/SSB, 435.910 FM
Hamsat 22 Oct 17:07:06 17:09:57 18° 71° (ENE) 17:12:48 145.90 MHz
Saudisat 1A 22 Oct 17:23:14 17:27:30 47° 60° (ENE) 17:31:45 436.775 MHz
OPAL 22 Oct 17:27:58 17:32:26 33° 100° (E) 17:36:51 ?
Uosat F 22 Oct 17:28:54 17:32:58 25° 263° (W) 17:37:03 435.120 FM
AO-7 22 Oct 18:19:08 18:22:59 14° 266° (W) 18:26:51 29.400 - 29.500 MHz
SO-67 22 Oct 18:31:03 18:33:16 16° 72° (ENE) 18:35:29 435.3500 MHz FM
Hamsat 22 Oct 18:42:05 18:45:40 27° 263° (W) 18:49:15 145.90 MHz
JAS-2 22 Oct 18:50:58 18:55:24 24° 267° (W) 19:00:15 435.800 - 435.900 CW/SSB, 435.910 FM
Saudisat 1A 22 Oct 19:04:58 19:06:36 12° 252° (WSW) 19:08:14 436.775 MHz
OPAL 22 Oct 19:07:25 19:11:03 21° 293° (WNW) 19:14:39 ?
STRAND 1 22 Oct 19:08:08 19:12:56 39° 99° (E) 19:17:41 ?
HO-68 22 Oct 19:47:36 19:52:38 21° 63° (ENE) 19:57:40 435.675 MHz FM
SO-67 22 Oct 20:03:41 20:06:04 18° 264° (W) 20:08:28 435.3500 MHz FM
ISS 22 Oct 20:19:00 20:21:37 21° 38° (NE) 20:24:13 145.800 FM
STRAND 1 22 Oct 20:48:13 20:51:46 19° 292° (WNW) 20:55:19 ?
Oscar 11 22 Oct 20:50:10 20:52:13 13° 69° (ENE) 20:54:16 145.825 FM, Beacon 2401.500 USB
KITSAT 1 22 Oct 20:59:33 21:05:44 23° 51° (NE) 21:11:52 435.175 FM
ZACube-1 22 Oct 21:31:37 21:34:42 18° 70° (ENE) 21:37:45 437.345 MHz
